Change the Weather History Date:

Saturday, September 8, 2012

  Actual Average (KVPZ) Record (KVPZ)
Temperature  
Mean Temperature 63 °F 66 °F  
Max Temperature 93 °F 77 °F 94 °F (2002)
Min Temperature 54 °F 56 °F 50 °F (1999)
Degree Days  
Heating Degree Days 2 2  
Month to date heating degree days 11  
Since 1 July heating degree days 28  
Cooling Degree Days 0 3  
Month to date cooling degree days 30  
Year to date cooling degree days 666  
Growing Degree Days 13 (Base 50)    
Moisture  
Dew Point 53 °F    
Average Humidity 74    
Maximum Humidity 99    
Minimum Humidity 43    
Precipitation  
Precipitation 0.00 in 0.12 in 0.33 in (2008)
Month to date precipitation 1.05  
Year to date precipitation 26.59  
Sea Level Pressure  
Sea Level Pressure 29.84 in    
Wind  
Wind Speed 7 mph (NW)    
Max Wind Speed 18 mph    
Max Gust Speed 25 mph    
Visibility 10 miles    
Events      
T = Trace of Precipitation, MM = Missing Value Source: NWS Daily Summary

Daily Weather History Graph

Daily Weather History Graph

Search for Another Location

Airport or City:

Trip Planner

Search our weather history database for the weather conditions in past years. The results will help you decide how hot, cold, wet, or windy it might be!

Date:

Astronomy

Sep. 08, 2012 Rise Set
Actual Time 6:20 AM CDT 7:07 PM CDT
Civil Twilight 5:52 AM CDT 7:34 PM CDT
Nautical Twilight 5:19 AM CDT 8:08 PM CDT
Astronomical Twilight 4:44 AM CDT 8:42 PM CDT
Moon 11:47 PM CDT (9/8) 2:06 PM CDT (9/8)
Length of Visible Light 13h 42m
Length of Day
12h 46m
Waning Gibbous, 48% of the Moon is Illuminated
Sep 8
Waning Gibbous
Sep 15
New
Sep 22
First Quarter
Sep 29
Full
Oct 8
Last Quarter

Hourly Weather History & Observations

Time (CDT) Temp. Dew Point Humidity Pressure Visibility Wind Dir Wind Speed Gust Speed Precip Events Conditions
12:35 AM 59.0 °F 57.6 °F 95% 29.78 in 10.0 mi North 4.6 mph - N/A   Overcast
12:55 AM 59.0 °F 57.7 °F 96% 29.78 in 10.0 mi North 6.9 mph - N/A   Overcast
1:15 AM 58.8 °F 57.2 °F 94% 29.79 in 10.0 mi NNW 4.6 mph - N/A   Overcast
1:35 AM 58.8 °F 57.4 °F 95% 29.79 in 10.0 mi NW 3.5 mph - N/A   Overcast
1:55 AM 58.8 °F 57.7 °F 96% 29.79 in 10.0 mi WNW 3.5 mph - N/A   Overcast
2:15 AM 58.8 °F 57.9 °F 97% 29.79 in 10.0 mi WNW 3.5 mph - N/A   Overcast
2:35 AM 58.3 °F 57.7 °F 98% 29.78 in 10.0 mi WNW 3.5 mph - N/A   Mostly Cloudy
2:55 AM 58.5 °F 58.1 °F 99% 29.79 in 10.0 mi WNW 3.5 mph - N/A   Overcast
3:15 AM 58.5 °F 57.7 °F 97% 29.78 in 10.0 mi NW 3.5 mph - N/A   Mostly Cloudy
3:35 AM 57.7 °F 57.2 °F 98% 29.78 in 10.0 mi WNW 3.5 mph - N/A   Scattered Clouds
3:55 AM 57.9 °F 57.7 °F 99% 29.77 in 7.0 mi West 3.5 mph - N/A   Mostly Cloudy
4:15 AM 58.5 °F 58.1 °F 99% 29.77 in 7.0 mi West 3.5 mph - N/A   Overcast
4:35 AM 58.1 °F 57.7 °F 99% 29.77 in 7.0 mi West 4.6 mph - N/A   Scattered Clouds
4:55 AM 57.7 °F 57.4 °F 99% 29.77 in 7.0 mi Calm Calm - N/A   Mostly Cloudy
5:15 AM 58.6 °F 58.1 °F 98% 29.78 in 10.0 mi West 3.5 mph - N/A   Overcast
5:55 AM 58.1 °F 57.6 °F 98% 29.78 in 10.0 mi WNW 5.8 mph - N/A   Clear
6:15 AM 58.5 °F 57.4 °F 96% 29.80 in 10.0 mi WNW 8.1 mph - N/A   Clear
6:35 AM 59.2 °F 57.2 °F 93% 29.81 in 10.0 mi WNW 11.5 mph - N/A   Scattered Clouds
6:55 AM 59.4 °F 57.4 °F 93% 29.82 in 10.0 mi NW 6.9 mph - N/A   Mostly Cloudy
7:15 AM 58.8 °F 57.2 °F 94% 29.83 in 10.0 mi NW 5.8 mph - N/A   Mostly Cloudy
7:35 AM 58.8 °F 57.0 °F 94% 29.84 in 10.0 mi NW 5.8 mph - N/A   Clear
7:55 AM 60.3 °F 57.2 °F 90% 29.85 in 10.0 mi NW 8.1 mph - N/A   Clear
8:15 AM 61.7 °F 56.7 °F 84% 29.85 in 10.0 mi WNW 11.5 mph 17.3 mph N/A   Clear
8:35 AM 62.8 °F 56.3 °F 79% 29.85 in 10.0 mi NW 16.1 mph 19.6 mph N/A   Clear
8:55 AM 63.7 °F 55.6 °F 75% 29.86 in 10.0 mi NW 17.3 mph 21.9 mph N/A   Clear
9:15 AM 63.5 °F 55.2 °F 74% 29.87 in 10.0 mi NW 15.0 mph 20.7 mph N/A   Scattered Clouds
9:35 AM 63.7 °F 54.5 °F 72% 29.87 in 10.0 mi NW 16.1 mph 20.7 mph N/A   Scattered Clouds
9:55 AM 63.7 °F 54.0 °F 71% 29.87 in 10.0 mi NNW 15.0 mph 19.6 mph N/A   Scattered Clouds
10:15 AM 64.6 °F 53.1 °F 66% 29.87 in 10.0 mi NNW 16.1 mph 23.0 mph N/A   Scattered Clouds
10:35 AM 64.6 °F 52.3 °F 64% 29.88 in 10.0 mi NNW 16.1 mph 24.2 mph N/A   Scattered Clouds
10:55 AM 66.0 °F 52.0 °F 60% 29.88 in 10.0 mi NNW 18.4 mph 25.3 mph N/A   Scattered Clouds
11:15 AM 66.7 °F 50.9 °F 57% 29.88 in 10.0 mi NW 15.0 mph 19.6 mph N/A   Scattered Clouds
11:35 AM 67.3 °F 51.1 °F 56% 29.88 in 10.0 mi NW 12.7 mph 20.7 mph N/A   Scattered Clouds
11:55 AM 67.1 °F 50.7 °F 56% 29.88 in 10.0 mi NW 13.8 mph 20.7 mph N/A   Scattered Clouds
12:15 PM 66.9 °F 50.0 °F 54% 29.88 in 10.0 mi NW 16.1 mph 20.7 mph N/A   Mostly Cloudy
12:35 PM 67.1 °F 50.0 °F 54% 29.88 in 10.0 mi NNW 13.8 mph 19.6 mph N/A   Mostly Cloudy
12:55 PM 66.9 °F 49.8 °F 54% 29.88 in 10.0 mi NNW 12.7 mph 20.7 mph N/A   Scattered Clouds
1:15 PM 66.6 °F 49.3 °F 54% 29.88 in 10.0 mi NW 16.1 mph 23.0 mph N/A   Scattered Clouds
1:35 PM 66.7 °F 50.2 °F 55% 29.88 in 10.0 mi NW 13.8 mph 23.0 mph N/A   Mostly Cloudy
1:55 PM 67.5 °F 49.6 °F 53% 29.88 in 10.0 mi NW 11.5 mph 21.9 mph N/A   Scattered Clouds
2:15 PM 67.6 °F 49.1 °F 51% 29.88 in 10.0 mi NNW 12.7 mph 18.4 mph N/A   Mostly Cloudy
2:35 PM 67.6 °F 48.6 °F 50% 29.88 in 10.0 mi NW 9.2 mph 18.4 mph N/A   Mostly Cloudy
2:55 PM 68.7 °F 47.5 °F 47% 29.87 in 10.0 mi NW 9.2 mph 16.1 mph N/A   Scattered Clouds
3:15 PM 68.2 °F 47.5 °F 47% 29.86 in 10.0 mi NNW 8.1 mph - N/A   Scattered Clouds
3:35 PM 68.9 °F 48.6 °F 48% 29.86 in 10.0 mi NW 6.9 mph - N/A   Mostly Cloudy
3:55 PM 68.5 °F 48.6 °F 49% 29.85 in 10.0 mi NW 5.8 mph - N/A   Mostly Cloudy
4:15 PM 67.8 °F 48.9 °F 51% 29.85 in 10.0 mi NNW 8.1 mph - N/A   Mostly Cloudy
4:35 PM 68.2 °F 49.6 °F 51% 29.85 in 10.0 mi WSW 6.9 mph - N/A   Mostly Cloudy
4:55 PM 68.4 °F 47.5 °F 47% 29.85 in 10.0 mi NW 6.9 mph - N/A   Scattered Clouds
5:15 PM 69.4 °F 46.0 °F 43% 29.84 in 10.0 mi WNW 8.1 mph - N/A   Scattered Clouds
5:35 PM 69.4 °F 45.9 °F 43% 29.84 in 10.0 mi WNW 9.2 mph - N/A   Scattered Clouds
5:55 PM 68.4 °F 45.9 °F 44% 29.85 in 10.0 mi WNW 4.6 mph - N/A   Scattered Clouds
6:15 PM 68.4 °F 46.0 °F 45% 29.85 in 10.0 mi WNW 9.2 mph - N/A   Scattered Clouds
6:35 PM 67.3 °F 45.7 °F 46% 29.85 in 10.0 mi WNW 4.6 mph - N/A   Clear
6:55 PM 65.1 °F 48.0 °F 54% 29.86 in 10.0 mi Calm Calm - N/A   Scattered Clouds
7:15 PM 62.8 °F 49.6 °F 62% 29.85 in 10.0 mi SW 3.5 mph - N/A   Scattered Clouds
7:35 PM 59.5 °F 50.2 °F 71% 29.85 in 10.0 mi SSW 3.5 mph - N/A   Clear
7:55 PM 58.3 °F 52.9 °F 82% 29.85 in 10.0 mi Calm Calm - N/A   Scattered Clouds
8:15 PM 58.3 °F 54.9 °F 88% 29.86 in 10.0 mi Calm Calm - N/A   Overcast
8:35 PM 58.6 °F 55.2 °F 88% 29.86 in 10.0 mi SE 3.5 mph - N/A   Overcast
8:55 PM 58.8 °F 55.8 °F 90% 29.86 in 10.0 mi Calm Calm - N/A   Overcast
9:15 PM 58.6 °F 55.0 °F 88% 29.86 in 10.0 mi Calm Calm - N/A   Overcast
9:55 PM 58.6 °F 53.1 °F 82% 29.86 in 10.0 mi Calm Calm - N/A   Mostly Cloudy
10:15 PM 57.6 °F 52.3 °F 83% 29.86 in 10.0 mi SSW 3.5 mph - N/A   Scattered Clouds
10:55 PM 54.0 °F 51.8 °F 92% 29.86 in 10.0 mi SE 3.5 mph - N/A   Clear